Location: Cussy
(47.0410°N, 4.6412°E)
Time: 06:25:52
(UTC+00:00)

Cosmos 1656 Rocket - Pass Details

Date: 30 November 2020
Orbit: 796 x 846 km, 71.1° (Epoch: 18 January)

Event Time Altitude Azimuth Distance (km) Brightness Sun altitude
Rises 17:23:44 0° 336° (NNW) 3,409 7.0 -14.7°
Reaches altitude 10° 17:26:21 10° 344° (NNW) 2,466 6.1 -15.1°
Maximum altitude 17:31:41 41° 54° (NE) 1,194 4.0 -16.0°
Enters shadow 17:35:45 16° 119° (ESE) 2,024 5.3 -16.7°
